(81707) = 2001 MH13 = 2000 JQ22

Discovered at Socorro on 2000-05-06 by LINEAR.

Orbit

Orbit type: Main Belt

Note: WebGL enabled browser required.

epoch2024-03-31.0
epoch JD2460400.5
perihelion date2022-12-30.99016
perihelion JD2459944.49016
argument of perihelion (°)9.09765
ascending node (°)322.13456
inclination (°)1.34842
eccentricity0.1558144
perihelion distance (AU)2.5781819
Tisserand w.r.t. Jupiter3.2
ΔV w.r.t. Earth (km/sec)10.1
semimajor axis (AU)3.0540463
mean anomaly (°)84.21019
mean daily motion (°/day)0.18466750
aphelion distance (AU)3.530
period (years)5.34
P-vector [x]0.87655042
P-vector [y]-0.44306020
P-vector [z]-0.18803461
Q-vector [x]0.48109326
Q-vector [y]0.79480308
Q-vector [z]0.36991532
absolute magnitude14.59
phase slope0.15
uncertainty0
referenceMPEC 2024-D136
observations used1554
oppositions20
arc length (days)8698
first opposition used2000
last opposition used2024
residual rms (arc-secs)0.68
perturbers coarse indicatorM-v
perturbers precise indicator003Ek
first observation date used2000-05-06.0
last observation date used2024-02-28.0
computer nameMPCLINUX
JD of orbit computation2456671.054293
perihelion JD uncertainty (days)7.5083E-05
argument of perihelion uncertainty (°)1.6768E-04
ascending node uncertainty (°)1.6718E-04
inclination uncertainty (°)3.7265E-06
eccentricity uncertainty 3.5938E-08
perihelion distance uncertainty (AU)1.0747E-07
Minimum Orbit Intersection Distances (in AU)
for orbit epoch: 2460400.5, reference: E2024-DD6
Mercury2.17217
Venus1.8521
Earth1.56733
Mars1.19774
Jupiter1.81351
Saturn5.65946
Uranus14.9193
Neptune26.7459

Observations

1585 total observations over interval: 2000 05 06.35918 – 2024 02 28.249983
These data are available for download (format description).

Date (UT) J2000 RA J2000 Dec Magn Location Ref
2000 05 06.35918 15 02 24.67 -19 19 28.2 19.5   704 – Lincoln Laboratory ETS, New Mexico MPS 14712
2000 05 06.37133 15 02 23.97 -19 19 26.8 19.4   704 – Lincoln Laboratory ETS, New Mexico MPS 14712
2000 05 06.38347 15 02 23.41 -19 19 25.0 19.5   704 – Lincoln Laboratory ETS, New Mexico MPS 14712
2000 05 09.30707 14 59 57.22 -19 09 38.7 18.8   704 – Lincoln Laboratory ETS, New Mexico MPS 14712
2000 05 09.31961 14 59 56.58 -19 09 35.1 18.3   704 – Lincoln Laboratory ETS, New Mexico MPS 14712
2000 05 09.33214 14 59 55.97 -19 09 32.6 19.1   704 – Lincoln Laboratory ETS, New Mexico MPS 14712
2000 05 10.29607 14 59 07.76 -19 06 14.5 18.2   704 – Lincoln Laboratory ETS, New Mexico MPS 14712
2000 05 10.30749 14 59 07.20 -19 06 12.6 18.4   704 – Lincoln Laboratory ETS, New Mexico MPS 14712
2000 05 10.31890 14 59 06.56 -19 06 09.3 18.6   704 – Lincoln Laboratory ETS, New Mexico MPS 14712
2000 05 10.33031 14 59 05.99 -19 06 07.8 18.6   704 – Lincoln Laboratory ETS, New Mexico MPS 14712
2000 05 10.34172 14 59 05.34 -19 06 05.6 18.4   704 – Lincoln Laboratory ETS, New Mexico MPS 14712
2000 05 23.24590 14 48 44.61 -18 20 47.5 18.4 R 699 – Lowell Observatory-LONEOS MPS 15880
2000 05 23.25538 14 48 44.24 -18 20 46.0   699 – Lowell Observatory-LONEOS MPS 15880
2000 05 23.26488 14 48 43.79 -18 20 44.5   699 – Lowell Observatory-LONEOS MPS 15880
2000 05 23.27438 14 48 43.34 -18 20 41.9   699 – Lowell Observatory-LONEOS MPS 15880
2000 05 28.17588 14 45 12.74 -18 03 59.7 18.1   704 – Lincoln Laboratory ETS, New Mexico MPS 15880
2000 05 28.18930 14 45 12.17 -18 03 56.9 18.7   704 – Lincoln Laboratory ETS, New Mexico MPS 15880
2000 05 28.20419 14 45 11.52 -18 03 53.8 18.6   704 – Lincoln Laboratory ETS, New Mexico MPS 15880
2000 05 28.20445 14 45 11.56 -18 03 54.0 18.5 R 699 – Lowell Observatory-LONEOS MPS 15880
2000 05 28.21760 14 45 10.99 -18 03 50.7 18.4   704 – Lincoln Laboratory ETS, New Mexico MPS 15880
2000 05 28.23098 14 45 10.40 -18 03 49.0 18.6   704 – Lincoln Laboratory ETS, New Mexico MPS 15880
2000 05 28.24547 14 45 09.85 -18 03 45.8   699 – Lowell Observatory-LONEOS MPS 15880
2000 05 28.26920 14 45 08.82 -18 03 41.4   699 – Lowell Observatory-LONEOS MPS 15880
2000 05 28.29293 14 45 07.83 -18 03 36.3   699 – Lowell Observatory-LONEOS MPS 15880
2000 05 29.18080 14 44 32.06 -18 00 41.0 18.6   704 – Lincoln Laboratory ETS, New Mexico MPS 15880
2000 05 29.19419 14 44 31.46 -18 00 37.8 18.9   704 – Lincoln Laboratory ETS, New Mexico MPS 15880
2000 05 29.20758 14 44 30.93 -18 00 34.9 18.7   704 – Lincoln Laboratory ETS, New Mexico MPS 15880
2000 05 29.22094 14 44 30.39 -18 00 32.3 18.6   704 – Lincoln Laboratory ETS, New Mexico MPS 15880
2000 05 29.23431 14 44 29.85 -18 00 29.7 18.5   704 – Lincoln Laboratory ETS, New Mexico MPS 15880
2000 06 01.35648 14 42 29.82 -17 50 29.8 20.8   608 – Haleakala-AMOS MPS 15880
2000 06 01.36718 14 42 29.35 -17 50 28.5 20.3   608 – Haleakala-AMOS MPS 15880
2000 06 01.37753 14 42 28.90 -17 50 26.3 21.0   608 – Haleakala-AMOS MPS 15880
2001 06 23.40251 22 49 47.51 -07 34 37.6 19.5   644 – Palomar Mountain/NEAT MPS 31859
2001 06 23.41358 22 49 47.83 -07 34 35.3 19.3   644 – Palomar Mountain/NEAT MPS 31859
2001 06 23.42465 22 49 48.12 -07 34 33.2 19.4   644 – Palomar Mountain/NEAT MPS 31859
2001 06 27.52348 22 51 35.36 -07 21 43.0 20.7   608 – Haleakala-AMOS MPS 31859
2001 06 27.53402 22 51 35.60 -07 21 41.6 20.5   608 – Haleakala-AMOS MPS 31859
2001 06 27.54470 22 51 35.81 -07 21 39.9 20.5   608 – Haleakala-AMOS MPS 31859
2001 07 19.36931 22 54 40.21 -06 51 05.1 18.8 R 699 – Lowell Observatory-LONEOS MPS 32327
2001 07 19.38813 22 54 40.04 -06 51 05.6   699 – Lowell Observatory-LONEOS MPS 32327
2001 07 19.40697 22 54 39.88 -06 51 05.8   699 – Lowell Observatory-LONEOS MPS 32327
2001 07 19.42582 22 54 39.72 -06 51 05.5   699 – Lowell Observatory-LONEOS MPS 32327
2001 07 28.54883 22 52 32.58 -06 58 22.4 19.8   608 – Haleakala-AMOS MPS 32327
2001 07 28.55949 22 52 32.33 -06 58 24.2 19.9   608 – Haleakala-AMOS MPS 32327
2001 07 28.57025 22 52 32.10 -06 58 24.5 19.6   608 – Haleakala-AMOS MPS 32327
2001 08 16.27652 22 42 38.63 -07 46 03.9 18.6   704 – Lincoln Laboratory ETS, New Mexico MPS 32815
2001 08 16.28879 22 42 38.08 -07 46 06.7 18.4   704 – Lincoln Laboratory ETS, New Mexico MPS 32815
2001 08 16.30111 22 42 37.55 -07 46 09.2 18.4   704 – Lincoln Laboratory ETS, New Mexico MPS 32815
2001 08 16.31337 22 42 37.03 -07 46 11.8 18.5   704 – Lincoln Laboratory ETS, New Mexico MPS 32815
2001 08 16.32558 22 42 36.51 -07 46 14.5 18.7   704 – Lincoln Laboratory ETS, New Mexico MPS 32815
2001 08 17.33740 22 41 54.27 -07 49 47.5 18.2   704 – Lincoln Laboratory ETS, New Mexico MPS 33287
2001 08 17.34950 22 41 53.75 -07 49 49.3 18.8   704 – Lincoln Laboratory ETS, New Mexico MPS 33287
2001 08 17.36159 22 41 53.29 -07 49 52.9 18.6   704 – Lincoln Laboratory ETS, New Mexico MPS 33287
2001 08 17.37367 22 41 52.58 -07 49 55.2 19.4   704 – Lincoln Laboratory ETS, New Mexico MPS 33287
2001 08 17.38584 22 41 52.08 -07 49 58.3 18.8   704 – Lincoln Laboratory ETS, New Mexico MPS 33287
2001 08 18.30073 22 41 13.50 -07 53 14.3 18.1   704 – Lincoln Laboratory ETS, New Mexico MPS 33287
2001 08 18.31319 22 41 13.07 -07 53 16.5 18.8   704 – Lincoln Laboratory ETS, New Mexico MPS 33287
2001 08 18.32572 22 41 12.35 -07 53 18.8 18.6   704 – Lincoln Laboratory ETS, New Mexico MPS 33287
2001 08 18.34182 22 41 11.83 -07 53 24.7 19.2   704 – Lincoln Laboratory ETS, New Mexico MPS 33287
2001 08 18.35401 22 41 11.26 -07 53 24.0 18.6   704 – Lincoln Laboratory ETS, New Mexico MPS 33287
2001 08 18.36620 22 41 10.64 -07 53 27.3 18.6   704 – Lincoln Laboratory ETS, New Mexico MPS 33287
2001 08 18.37840 22 41 10.16 -07 53 31.4 18.9   704 – Lincoln Laboratory ETS, New Mexico MPS 33287
2001 08 23.27660 22 37 33.96 -08 11 50.1 17.4 R 699 – Lowell Observatory-LONEOS MPS 33287
2001 08 23.29997 22 37 32.85 -08 11 55.2   699 – Lowell Observatory-LONEOS MPS 33287
2001 08 23.32337 22 37 31.76 -08 12 01.6   699 – Lowell Observatory-LONEOS MPS 33287
2001 08 23.34682 22 37 30.65 -08 12 06.5   699 – Lowell Observatory-LONEOS MPS 33287
2001 08 23.39883 22 37 28.25 -08 12 17.9 18.1 V 691 – Steward Observatory, Kitt Peak-Spacewatch MPS 33287
2001 08 23.41984 22 37 27.23 -08 12 23.0 18.3 V 691 – Steward Observatory, Kitt Peak-Spacewatch MPS 33287
2001 08 23.44084 22 37 26.24 -08 12 27.9 18.2 V 691 – Steward Observatory, Kitt Peak-Spacewatch MPS 33287
2001 08 28.22353 22 33 46.84 -08 31 09.1 17.6   644 – Palomar Mountain/NEAT MPS 34281
2001 08 28.22435 22 33 46.81 -08 31 10.1 17.5   644 – Palomar Mountain/NEAT MPS 34281
2001 08 28.24518 22 33 45.80 -08 31 14.3 17.4   644 – Palomar Mountain/NEAT MPS 34281
2001 08 28.24601 22 33 45.77 -08 31 15.4 17.4   644 – Palomar Mountain/NEAT MPS 34281
2001 08 28.26647 22 33 44.78 -08 31 19.5 17.5   644 – Palomar Mountain/NEAT MPS 34281
2001 08 28.26727 22 33 44.75 -08 31 20.3 17.2   644 – Palomar Mountain/NEAT MPS 34281
2001 09 07.19478 22 26 10.86 -09 09 47.9 17.6   704 – Lincoln Laboratory ETS, New Mexico MPS 34281
2001 09 07.20862 22 26 10.23 -09 09 51.0 17.8   704 – Lincoln Laboratory ETS, New Mexico MPS 34281
2001 09 07.22244 22 26 09.60 -09 09 54.0 17.5   704 – Lincoln Laboratory ETS, New Mexico MPS 34281
2001 09 07.23630 22 26 08.94 -09 09 56.7 17.8   704 – Lincoln Laboratory ETS, New Mexico MPS 34281
2001 09 07.25018 22 26 08.33 -09 10 00.8 17.6   704 – Lincoln Laboratory ETS, New Mexico MPS 34281
2001 09 07.33288 22 26 04.52 -09 10 19.3 17.5 R 699 – Lowell Observatory-LONEOS MPS 34281
2001 09 07.34538 22 26 03.97 -09 10 21.9   699 – Lowell Observatory-LONEOS MPS 34281
2001 09 07.35790 22 26 03.35 -09 10 24.3   699 – Lowell Observatory-LONEOS MPS 34281
2001 09 07.37045 22 26 02.87 -09 10 27.6   699 – Lowell Observatory-LONEOS MPS 34281
2001 09 10.25370 22 23 58.31 -09 20 56.1 17.9   704 – Lincoln Laboratory ETS, New Mexico MPS 34281
2001 09 10.26795 22 23 57.70 -09 20 59.0 18.2   704 – Lincoln Laboratory ETS, New Mexico MPS 34281
2001 09 10.28186 22 23 57.08 -09 21 01.9 18.1   704 – Lincoln Laboratory ETS, New Mexico MPS 34281
2001 09 10.29577 22 23 56.50 -09 21 05.2 18.2   704 – Lincoln Laboratory ETS, New Mexico MPS 34281
